Location: Newark
(27.9675°N, 86.8869°E)
Time: 22:19:40
(UTC+00:00)

Altair - Pass Details

Date: 25 October 2019
Orbit: 1502 x 1682 km, 47.2° (Epoch: 12 November)

Event Time Altitude Azimuth Distance (km) Brightness Sun altitude
Rises 02:15:51 0° 218° (SW) 4,627 9.9 23.3°
Reaches altitude 10° 02:18:51 10° 215° (SW) 3,656 9.5 23.9°
Maximum altitude 02:27:59 70° 134° (SE) 1,620 8.5 25.7°
Drops below altitude 10° 02:37:26 10° 53° (NE) 3,779 9.9 27.4°
Sets 02:40:35 0° 51° (NE) 4,791 10.3 28.0°
